Tracking 18784 objects as of 18-August-2017
HD Live streaming from Space Station
objects crossing your sky now

PACE

Track PACE now!
10-day predictions
PACE is classified as:


NORAD ID: 40023
Int'l Code: 2014-033P
Perigee: 599.2 km
Apogee: 618.6 km
Inclination: 97.9 °
Period: 96.7 minutes
Semi major axis: 6979 km
RCS: Unknown
Launch date: June 19, 2014
Source: (TBD)
Launch site: Orenburg, Russia (OREN)
Uplink (MHz):
Downlink (MHz): 437.485
Beacon (MHz): 437.485
Mode: 1200bps AFSK CW
Call sign:
Status: Inactive

Your satellite tracking list
Your tracking list is empty





NASA's NSSDC Master Catalog

Two Line Element Set (TLE):
1 40023U 14033P   17230.50220274  .00000275  00000-0  35344-4 0  9992
2 40023  97.9177 142.7429 0013919  98.7784 261.5009 14.88779326171777
Source of the keplerian elements: Caltech